HS6BUE-3 Weather Reports


Display with metric or nautical units.
time (UTC)temp
F
wind
direction
speed
MPH
gust
MPH
rain 1hr
in
rain 24hr
in
rain mn
in
humidity
%
barometer
mb
20260903130751 86 0 0.0 0.0 0.00 0.00 0.00 53 1002.0
20260903125728 86 0 0.0 0.0 0.00 0.00 0.00 52 1001.0
20260903124705 86 0 0.0 0.0 0.00 0.00 0.00 52 1001.0
20260903123643 86 0 0.0 0.0 0.00 0.00 0.00 51 1001.0
20260903122620 86 0 0.0 0.0 0.00 0.00 0.00 51 1001.0
20260903121557 86 0 0.0 0.0 0.00 0.00 0.00 50 1000.0
20260903120535 86 0 0.0 0.0 0.00 0.00 0.00 50 1000.0
20260903115512 86 0 0.0 0.0 0.00 0.00 0.00 49 1000.0
20260903114449 86 0 0.0 0.0 0.00 0.00 0.00 48 1000.0
20260903113427 86 0 0.0 0.0 0.00 0.00 0.00 48 1000.0
20260903112404 86 0 0.0 0.0 0.00 0.00 0.00 47 1000.0
20260903111341 85 0 0.0 0.0 0.00 0.00 0.00 46 1000.0
20260903110319 85 0 0.0 0.0 0.00 0.00 0.00 45 1000.0
20260903105256 85 0 0.0 0.0 0.00 0.00 0.00 45 999.0
20260903104233 85 0 0.0 0.0 0.00 0.00 0.00 44 999.0
20260903103211 84 0 0.0 0.0 0.00 0.00 0.00 43 999.0
20260903102148 83 0 0.0 0.0 0.00 0.00 0.00 43 999.0
20260903101125 81 0 0.0 0.0 0.00 0.00 0.00 44 999.0
20260903100103 81 0 0.0 0.0 0.00 0.00 0.00 47 999.0
20260903095040 80 0 0.0 0.0 0.00 0.00 0.00 43 999.0
20260903094018 80 0 0.0 0.0 0.00 0.00 0.00 38 999.0
20260903092955 80 0 0.0 0.0 0.00 0.00 0.00 38 999.0
20260903091932 80 0 0.0 0.0 0.00 0.00 0.00 39 999.0
20260903090909 81 0 0.0 0.0 0.00 0.00 0.00 41 999.0
20260903085847 80 0 0.0 0.0 0.00 0.00 0.00 37 999.0
20260903084824 81 0 0.0 0.0 0.00 0.00 0.00 37 999.0
20260903083802 81 0 0.0 0.0 0.00 0.00 0.00 37 999.0
20260903082739 81 0 0.0 0.0 0.00 0.00 0.00 37 999.0
20260903081716 81 0 0.0 0.0 0.00 0.00 0.00 37 1000.0
20260903080654 81 0 0.0 0.0 0.00 0.00 0.00 38 1000.0
20260903075631 81 0 0.0 0.0 0.00 0.00 0.00 37 1000.0
20260903074608 81 0 0.0 0.0 0.00 0.00 0.00 38 1000.0
20260903073546 81 0 0.0 0.0 0.00 0.00 0.00 38 1000.0
20260903072523 81 0 0.0 0.0 0.00 0.00 0.00 38 1001.0
20260903071500 80 0 0.0 0.0 0.00 0.00 0.00 38 1001.0
20260903070438 81 0 0.0 0.0 0.00 0.00 0.00 39 1001.0
20260903065415 81 0 0.0 0.0 0.00 0.00 0.00 38 1001.0
20260903064353 81 0 0.0 0.0 0.00 0.00 0.00 39 1001.0
20260903063330 82 0 0.0 0.0 0.00 0.00 0.00 41 1002.0
20260903062307 82 0 0.0 0.0 0.00 0.00 0.00 44 1002.0
20260903061244 80 0 0.0 0.0 0.00 0.00 0.00 39 1002.0
20260903060222 80 0 0.0 0.0 0.00 0.00 0.00 36 1002.0
20260903055159 80 0 0.0 0.0 0.00 0.00 0.00 36 1002.0
20260903054136 81 0 0.0 0.0 0.00 0.00 0.00 36 1003.0
20260903053113 80 0 0.0 0.0 0.00 0.00 0.00 36 1003.0
20260903052051 81 0 0.0 0.0 0.00 0.00 0.00 36 1003.0
20260903051028 80 0 0.0 0.0 0.00 0.00 0.00 37 1003.0
20260903050005 80 0 0.0 0.0 0.00 0.00 0.00 37 1003.0
20260903044943 81 0 0.0 0.0 0.00 0.00 0.00 37 1003.0
20260903043920 81 0 0.0 0.0 0.00 0.00 0.00 37 1004.0
20260903042857 80 0 0.0 0.0 0.00 0.00 0.00 37 1004.0
20260903041834 81 0 0.0 0.0 0.00 0.00 0.00 37 1004.0
20260903040812 81 0 0.0 0.0 0.00 0.00 0.00 37 1004.0
20260903035749 81 0 0.0 0.0 0.00 0.00 0.00 37 1004.0
20260903034726 80 0 0.0 0.0 0.00 0.00 0.00 38 1004.0
20260903033704 80 0 0.0 0.0 0.00 0.00 0.00 39 1004.0
20260903032641 81 0 0.0 0.0 0.00 0.00 0.00 40 1004.0
20260903031618 81 0 0.0 0.0 0.00 0.00 0.00 43 1004.0
20260903030556 82 0 0.0 0.0 0.00 0.00 0.00 48 1004.0
20260903025533 79 0 0.0 0.0 0.00 0.00 0.00 37 1004.0
20260903024510 79 0 0.0 0.0 0.00 0.00 0.00 38 1004.0
20260903023447 79 0 0.0 0.0 0.00 0.00 0.00 38 1004.0
20260903022425 79 0 0.0 0.0 0.00 0.00 0.00 38 1004.0
20260903021402 80 0 0.0 0.0 0.00 0.00 0.00 38 1004.0
20260903020340 79 0 0.0 0.0 0.00 0.00 0.00 39 1004.0
20260903015317 79 0 0.0 0.0 0.00 0.00 0.00 39 1004.0
20260903014254 79 0 0.0 0.0 0.00 0.00 0.00 40 1005.0
20260903013232 80 0 0.0 0.0 0.00 0.00 0.00 41 1004.0
20260903012211 80 0 0.0 0.0 0.00 0.00 0.00 41 1004.0
20260903011146 80 0 0.0 0.0 0.00 0.00 0.00 43 1004.0
20260903010124 80 0 0.0 0.0 0.00 0.00 0.00 47 1004.0
20260903005101 81 0 0.0 0.0 0.00 0.00 0.00 51 1004.0
20260903004038 82 0 0.0 0.0 0.00 0.00 0.00 54 1004.0
20260903003016 85 0 0.0 0.0 0.00 0.00 0.00 65 1004.0
20260903001953 85 0 0.0 0.0 0.00 0.00 0.00 65 1004.0
20260903000930 85 0 0.0 0.0 0.00 0.00 0.00 65 1003.0
20260902235908 85 0 0.0 0.0 0.00 0.00 0.00 66 1003.0
20260902234845 85 0 0.0 0.0 0.00 0.00 0.00 66 1003.0
20260902233822 84 0 0.0 0.0 0.00 0.00 0.00 66 1003.0
20260902232800 86 0 0.0 0.0 0.00 0.00 0.00 70 1003.0
20260902231737 85 0 0.0 0.0 0.00 0.00 0.00 71 1003.0
20260902230714 85 0 0.0 0.0 0.00 0.00 0.00 72 1003.0
20260902225652 85 0 0.0 0.0 0.00 0.00 0.00 72 1003.0
20260902224629 86 0 0.0 0.0 0.00 0.00 0.00 71 1003.0
20260902223606 86 0 0.0 0.0 0.00 0.00 0.00 71 1003.0
20260902222544 86 0 0.0 0.0 0.00 0.00 0.00 71 1003.0
20260902221521 86 0 0.0 0.0 0.00 0.00 0.00 71 1003.0
20260902220458 86 0 0.0 0.0 0.00 0.00 0.00 71 1003.0
20260902215436 86 0 0.0 0.0 0.00 0.00 0.00 70 1003.0
20260902214413 86 0 0.0 0.0 0.00 0.00 0.00 71 1003.0
20260902213350 85 0 0.0 0.0 0.00 0.00 0.00 71 1003.0
20260902212328 86 0 0.0 0.0 0.00 0.00 0.00 72 1003.0
20260902211305 86 0 0.0 0.0 0.00 0.00 0.00 72 1003.0
20260902210242 86 0 0.0 0.0 0.00 0.00 0.00 69 1003.0
20260902205220 86 0 0.0 0.0 0.00 0.00 0.00 69 1003.0
20260902204157 86 0 0.0 0.0 0.00 0.00 0.00 69 1003.0
20260902203134 86 0 0.0 0.0 0.00 0.00 0.00 69 1003.0
20260902202112 86 0 0.0 0.0 0.00 0.00 0.00 69 1003.0
20260902201049 86 0 0.0 0.0 0.00 0.00 0.00 68 1003.0
20260902200026 86 0 0.0 0.0 0.00 0.00 0.00 68 1003.0
20260902195004 86 0 0.0 0.0 0.00 0.00 0.00 68 1003.0
20260902193941 86 0 0.0 0.0 0.00 0.00 0.00 67 1003.0
20260902192918 86 0 0.0 0.0 0.00 0.00 0.00 68 1003.0
20260902191856 86 0 0.0 0.0 0.00 0.00 0.00 67 1003.0
20260902190833 86 0 0.0 0.0 0.00 0.00 0.00 67 1003.0
20260902185810 86 0 0.0 0.0 0.00 0.00 0.00 66 1003.0
20260902184748 86 0 0.0 0.0 0.00 0.00 0.00 66 1003.0
20260902183727 86 0 0.0 0.0 0.00 0.00 0.00 66 1003.0
20260902182705 86 0 0.0 0.0 0.00 0.00 0.00 66 1003.0
20260902181639 86 0 0.0 0.0 0.00 0.00 0.00 66 1004.0
20260902180617 86 0 0.0 0.0 0.00 0.00 0.00 65 1004.0
20260902175555 86 0 0.0 0.0 0.00 0.00 0.00 66 1004.0
20260902174532 86 0 0.0 0.0 0.00 0.00 0.00 65 1004.0
20260902173509 86 0 0.0 0.0 0.00 0.00 0.00 66 1004.0
20260902172446 86 0 0.0 0.0 0.00 0.00 0.00 65 1004.0
20260902171424 86 0 0.0 0.0 0.00 0.00 0.00 63 1004.0
20260902170401 86 0 0.0 0.0 0.00 0.00 0.00 63 1004.0
20260902165338 86 0 0.0 0.0 0.00 0.00 0.00 63 1004.0
20260902164316 86 0 0.0 0.0 0.00 0.00 0.00 63 1004.0
20260902163253 86 0 0.0 0.0 0.00 0.00 0.00 62 1004.0
20260902162230 86 0 0.0 0.0 0.00 0.00 0.00 61 1004.0
20260902161208 86 0 0.0 0.0 0.00 0.00 0.00 61 1004.0
20260902160145 85 0 0.0 0.0 0.00 0.00 0.00 60 1005.0
20260902155122 85 0 0.0 0.0 0.00 0.00 0.00 60 1005.0
20260902154100 85 0 0.0 0.0 0.00 0.00 0.00 59 1005.0
20260902153037 85 0 0.0 0.0 0.00 0.00 0.00 59 1005.0
20260902152015 85 0 0.0 0.0 0.00 0.00 0.00 58 1005.0
20260902150952 85 0 0.0 0.0 0.00 0.00 0.00 57 1005.0
20260902145929 85 0 0.0 0.0 0.00 0.00 0.00 56 1005.0
20260902144906 85 0 0.0 0.0 0.00 0.00 0.00 56 1005.0
20260902143845 85 0 0.0 0.0 0.00 0.00 0.00 56 1005.0
20260902142821 85 0 0.0 0.0 0.00 0.00 0.00 55 1004.0
20260902141758 85 0 0.0 0.0 0.00 0.00 0.00 55 1004.0
20260902140736 85 0 0.0 0.0 0.00 0.00 0.00 54 1004.0
20260902135713 85 0 0.0 0.0 0.00 0.00 0.00 54 1004.0
20260902134650 85 0 0.0 0.0 0.00 0.00 0.00 53 1004.0
20260902133628 85 0 0.0 0.0 0.00 0.00 0.00 53 1003.0
20260902132605 85 0 0.0 0.0 0.00 0.00 0.00 52 1003.0
20260902131542 85 0 0.0 0.0 0.00 0.00 0.00 52 1003.0